DECAYED

STARLINK-4419, 53211 (Decayed)

Orbit data source: Space-Track

STARLINK-4419, 53211 was a payload satellite owned by SpaceX/Seattle (US) in LEO that was launched on Fri, 22 Jul 2022 UTC via an FALCON 9 launch vehicle from the Air Force Western Test Range (AFWTR). Payload-class satellites include a variety of spacecraft equipped with specific instruments for various scientific and technological missions. These include communications satellites like Starlink; space stations such as the ISS; scientific satellites like the Hubble; Earth observation satellites from companies like Planet Labs, Umbra, and HawkEye 360; GPS; miniature CubeSats for education and research; and military/defense satellites.

Not visible in the next 10 days
Identifier
53211, 2022-084Y
Orbit
Decayed
Country
Flag of USUS
Related business
Manufacturer
SpaceX/Seattle
Mission
Decayed Commercial Communications
Bus & Motor
STARLINK, Unknown motor
Mass
297 kg wet, ~275 kg dry
Launch date (UTC)
2022-07-22 (4 years ago)
Launch vehicle
FALCON 9
Launch site
Air Force Western Test Range (AFWTR)
Object type
Payload
Rocket body
Debris
Shape & HBR
Box + 1 Pan, 10.1 m
Radar Cross Section
13.562 m², Large (>1 m²)

Expand to show TLE details & history
Last TLE update: 1 year ago

TLE from 1 year ago
0 STARLINK-4419
1 53211U 22084Y   25154.78745484  .20970342  28878-5  11556-3 0  9998
2 53211  97.6268 223.3029 0010351 227.1690 272.5303 16.55008459158278
Epoch: 2025-06-03T18:53Z
TLE epoch observation values (Epoch: 2025-06-03T18:53:56.098Z)
Latitude
40.08296°
Longitude
-126.22777°
Altitude
131.788 km
Speed
7.831 km/s
True Right ascension
03h 18m 56s
True Declination
39° 53' 50"
Sunlit
Object was in daylight at epoch
Visualization orbit readout
Latitude
Unknown
Longitude
Unknown
Altitude
Unknown
Speed
Unknown
Apparent Right ascension
Unknown
Apparent Declination
Unknown
Sunlit
N/A
Visualization observer readout
Local Sidereal Time
21:32:22
Azimuth
Unknown
Elevation
Unknown
Doppler factor
Unknown
Orbital elements
Apogee altitude
129.708 km
Perigee altitude
116.249 km
Semi-major axis
6,501.115 km
Eccentricity
0.00104
Inclination
97.6268°
RAAN
223.3029°
Arg. of periapsis
227.169°
True anomaly
272.4118°
Mean anomaly
272.5303°
Eccentric anomaly
272.47105°
Mean motion
4.14058 °/min
Orbital period
86.94 mins
BSTAR
0.00011556
Loading maneuver chart data...
Computing Atmospheric mass density...
Loading historical data...
Loading historical data...
Loading historical data...
Loading historical data...
Loading historical data...
Loading historical data...
Loading historical data...

Documentation

Showing up to 5 results
|